Location: Zagreb
(45.8000°N, 16.0000°E)
Time: 13:07:19
(UTC+02:00)

Envisat - Pass Details

Date: 23 January 2022
Orbit: 764 x 765 km, 98.2° (Epoch: 22 May)

Event Time Altitude Azimuth Distance (km) Brightness Sun altitude
Rises 03:49:21 0° 25° (NNE) 3,240 6.7 -37.7°
Reaches altitude 10° 03:52:09 10° 40° (NE) 2,309 6.0 -37.3°
Maximum altitude 03:56:08 23° 92° (E) 1,596 5.1 -36.6°
Drops below altitude 10° 04:00:05 10° 144° (SE) 2,296 5.7 -35.9°
Sets 04:02:51 0° 159° (SSE) 3,217 6.4 -35.4°
